Bloomington, IL

4:21 AM CDT on June 25, 2017 (GMT -0500)
Central Ill Regional

Weather History for KBMI - November, 2012

Change the Weather History Date:

Friday, November 9, 2012

  Actual Average Record
Temperature  
Mean Temperature 48 °F -  
Max Temperature 59 °F 66 °F 73 °F (1999)
Min Temperature 36 °F 38 °F 19 °F (2003)
Degree Days  
Heating Degree Days 18    
Moisture  
Dew Point 44 °F    
Average Humidity 86    
Maximum Humidity 100    
Minimum Humidity 62    
Precipitation  
Precipitation 0.00 in - - ()
Sea Level Pressure  
Sea Level Pressure 30.04 in    
Wind  
Wind Speed 12 mph (South)    
Max Wind Speed 16 mph    
Max Gust Speed -    
Visibility 8 miles    
Events      
Averages and records for this station are not official NWS values.
T = Trace of Precipitation, MM = Missing Value Source: NWS Daily Summary

Daily Weather History Graph

Daily Weather History Graph

Search for Another Location

Airport or City:

Trip Planner

Search our weather history database for the weather conditions in past years. The results will help you decide how hot, cold, wet, or windy it might be!

Date:

Astronomy

Nov. 09, 2012 Rise Set
Actual Time 6:35 AM CST 4:43 PM CST
Civil Twilight 6:06 AM CST 5:11 PM CST
Nautical Twilight 5:33 AM CST 5:44 PM CST
Astronomical Twilight 5:01 AM CST 6:16 PM CST
Moon 1:33 AM CST (11/9) 1:57 PM CST (11/9)
Length of Visible Light 11h 05m
Length of Day
10h 07m
Waning Crescent, 23% of the Moon is Illuminated
Nov 9
Waning Crescent
Nov 13
New
Nov 20
First Quarter
Nov 28
Full
Dec 6
Last Quarter

Hourly Weather History & Observations

Time (CST) Temp. Windchill Dew Point Humidity Pressure Visibility Wind Dir Wind Speed Gust Speed Precip Events Conditions
12:56 AM 36.9 °F 29.1 °F 36.9 °F 100% 30.13 in 5.0 mi SSW 11.5 mph - N/A   Clear
1:56 AM 36.0 °F 29.6 °F 36.0 °F 100% 30.12 in 5.0 mi South 8.1 mph - N/A   Clear
2:56 AM 37.9 °F 30.0 °F 36.9 °F 96% 30.11 in 6.0 mi South 12.7 mph - N/A   Clear
3:56 AM 37.9 °F 30.5 °F 36.9 °F 96% 30.10 in 6.0 mi South 11.5 mph - N/A   Clear
4:56 AM 36.9 °F 29.6 °F 36.0 °F 97% 30.11 in 5.0 mi South 10.4 mph - N/A   Clear
6:56 AM 36.9 °F 29.1 °F 36.9 °F 100% 30.12 in 5.0 mi South 11.5 mph - N/A   Clear
7:56 AM 41.0 °F 34.3 °F 37.9 °F 89% 30.11 in 6.0 mi South 11.5 mph - N/A   Clear
8:56 AM 45.0 °F 37.9 °F 39.9 °F 82% 30.10 in 8.0 mi South 16.1 mph - N/A   Clear
9:56 AM 48.9 °F - 41.9 °F 77% 30.09 in 10.0 mi South 15.0 mph - N/A   Clear
10:56 AM 50.9 °F - 43.0 °F 74% 30.06 in 10.0 mi South 16.1 mph - N/A   Overcast
11:56 AM 52.9 °F - 43.9 °F 71% 30.04 in 10.0 mi South 16.1 mph - N/A   Overcast
12:56 PM 55.9 °F - 45.0 °F 67% 30.01 in 10.0 mi South 12.7 mph - N/A   Clear
1:56 PM 59.9 °F - 46.9 °F 62% 29.99 in 10.0 mi SSE 12.7 mph - N/A   Clear
2:56 PM 59.9 °F - 47.8 °F 64% 29.97 in 10.0 mi South 15.0 mph - N/A   Clear
3:56 PM 59.0 °F - 48.9 °F 69% 29.97 in 10.0 mi South 11.5 mph - N/A   Clear
4:56 PM 54.9 °F - 47.8 °F 77% 29.98 in 10.0 mi SE 8.1 mph - N/A   Clear
5:56 PM 54.9 °F - 48.9 °F 80% 29.98 in 10.0 mi SSE 10.4 mph - N/A   Clear
6:56 PM 54.0 °F - 50.0 °F 86% 29.96 in 10.0 mi SSE 10.4 mph - N/A   Clear
7:56 PM 52.0 °F - 50.9 °F 96% 29.97 in 10.0 mi SSE 10.4 mph - N/A   Clear
8:56 PM 52.9 °F - 50.9 °F 93% 29.97 in 10.0 mi SSE 9.2 mph - N/A   Clear
9:56 PM 52.0 °F - 50.9 °F 96% 29.97 in 10.0 mi SSE 9.2 mph - N/A   Clear
10:56 PM 52.0 °F - 52.0 °F 100% 29.98 in 10.0 mi SSE 11.5 mph - N/A   Clear
11:56 PM 50.9 °F - 50.9 °F 100% 30.00 in 9.0 mi SSE 6.9 mph - N/A   Clear